Location: Brienzwiler
(46.7508°N, 8.1014°E)
Time: 01:30:03
(UTC+00:00)

GP-B - Pass Details

Date: 05 July 2020
Orbit: 631 x 635 km, 89.8° (Epoch: 11 August)

Event Time Altitude Azimuth Distance (km) Brightness Sun altitude
Rises 22:03:54 0° 11° (NNE) 2,942 7.5 -17.8°
Reaches altitude 10° 22:06:25 10° 24° (NNE) 2,028 6.3 -17.9°
Maximum altitude 22:10:13 27° 83° (E) 1,222 4.4 -18.1°
Enters shadow 22:11:26 24° 109° (ESE) 1,324 4.4 -18.2°
